Observer data 
site:   Weissflujoch 
elevation:       2540 m a.s.l 
coordinates:       46�49'47''N, 9�48'34''E 
units:     jjjj-mm-dd HH:MMM:SS,cm,cm,mm,cm 

DATETIME,HN,HS,HNW,HS2
2018-10-01 08:29:00,  5.0,2,  8.0,  5.0
2018-10-02 08:32:00, 15.0,9, 26.0, 13.0
2018-10-03 08:27:00,  0.3,5,  0.0,  8.0
2018-10-04 08:20:00,  0.0,2,  0.0,  3.0
2018-10-05 08:21:00,  0.0,0,  0.0, NaN
2018-10-06 08:00:00,  0.0,0,  0.0, NaN
2018-10-07 08:00:00,  0.0,0,  0.0, NaN
2018-10-08 08:00:00,  0.0,0,  0.0, NaN
2018-10-09 08:00:00,  0.0,0,  0.0, NaN
2018-10-10 08:00:00,  0.0,0,  0.0, NaN
2018-10-11 08:00:00,  0.0,0,  0.0, NaN
2018-10-12 08:00:00,  0.0,0,  0.0, NaN
2018-10-13 08:00:00,  0.0,0,  0.0, NaN
2018-10-14 08:00:00,  0.0,0,  0.0, NaN
2018-10-15 08:00:00,  0.0,0,  0.0, NaN
2018-10-16 08:00:00,  0.0,0,  0.0, NaN
2018-10-17 08:00:00,  0.0,0,  0.0, NaN
2018-10-18 08:00:00,  0.0,0,  0.0, NaN
2018-10-19 08:00:00,  0.0,0,  0.0, NaN
2018-10-20 08:00:00,  0.0,0,  0.0, NaN
2018-10-21 08:00:00,  0.0,0,  0.0, NaN
2018-10-22 08:00:00,  0.0,0,  0.0, NaN
2018-10-23 08:00:00,  0.0,0,  0.0, NaN
2018-10-24 07:57:00,  0.3,0,  1.0, NaN
2018-10-25 08:00:00,  0.0,0,  0.0, NaN
2018-10-26 08:00:00,  0.0,0,  0.0, NaN
2018-10-27 07:52:00,  4.0,4,  8.0,  6.0
2018-10-28 07:46:00, 51.0,52, 56.0, 55.0
2018-10-29 08:06:00, 10.0,45, 10.0, 50.0
2018-10-30 08:04:00, 31.0,60, 59.0, 67.0
2018-10-31 08:10:00,  0.0,54,  0.0, 60.0
2018-11-01 08:11:00,  3.0,55,  4.0, 59.0
2018-11-02 08:15:00,  5.0,56,  8.0, 60.0
2018-11-03 09:07:00,  1.0,55,  1.0, 59.0
2018-11-04 07:11:00,  0.0,51,  0.0, 56.0
2018-11-05 07:39:00,  0.3,46,  0.0, 54.0
2018-11-06 08:09:00,  0.3,45,  0.0, 50.0
2018-11-07 08:06:00,  0.3,42,  0.0, 49.0
2018-11-08 08:16:00,  0.0,40,  0.0, 46.0
2018-11-09 08:12:00,  0.3,37,  0.0, 45.0
2018-11-10 08:17:00,  0.0,37,  0.0, 45.0
2018-11-11 08:22:00,  0.0,35,  0.0, 45.0
2018-11-12 08:09:00,  0.0,34,  0.0, 42.0
2018-11-13 08:17:00,  0.0,33,  0.0, 40.0
2018-11-14 08:18:00,  0.3,34,  0.0, 39.0
2018-11-15 09:09:00,  0.0,33,  0.0, 40.0
2018-11-16 08:15:00,  0.0,31,  0.0, 38.0
2018-11-17 08:50:00,  0.0,30,  0.0, 38.0
2018-11-18 08:12:00,  0.0,30,  0.0, 38.0
2018-11-19 08:04:00,  3.0,33,  3.0, 42.0
2018-11-20 08:03:00,  0.3,35,  0.0, 39.0
2018-11-21 08:00:00,  0.0,35,  0.0, 39.0
2018-11-22 08:04:00,  3.0,39,  3.0, 43.0
2018-11-23 08:11:00,  0.0,39,  0.0, 42.0
2018-11-24 08:11:00,  4.0,44,  4.0, 46.0
2018-11-25 08:11:00,  0.0,43,  0.0, 44.0
2018-11-26 07:37:00,  0.0,43,  0.0, 42.0
2018-11-27 08:12:00, 13.0,48, 11.0, 47.0
2018-11-28 08:11:00,  2.0,52,  2.0, 54.0
2018-11-29 08:05:00,  0.0,48,  0.0, NaN
2018-11-30 08:24:00,  0.0,47,  0.0, 48.0
2018-12-01 08:11:00,  4.0,50,  5.0, 54.0
2018-12-02 08:00:00,  0.0,49,  0.0, 51.0
2018-12-03 08:26:00, 35.0,82, 42.0, 86.0
2018-12-04 08:28:00, 18.0,93, 24.0, 93.0
2018-12-05 08:04:00,  9.0,98, 13.0, 99.0
2018-12-06 08:16:00,  4.0,97,  4.0, 96.0
2018-12-07 08:09:00,  0.0,93,  0.0, 95.0
2018-12-08 08:10:00,  0.3,96,  0.0,100.0
2018-12-09 08:17:00, 18.0,108, 14.0,110.0
2018-12-10 09:23:00, 41.0,143, 50.0,139.0
2018-12-11 08:44:00, 34.0,154, 33.0,158.0
2018-12-12 08:14:00,  2.0,146,  1.0,150.0
2018-12-13 08:10:00,  0.0,141,  0.0,143.0
2018-12-14 08:08:00,  0.0,136,  0.0,138.0
2018-12-15 08:08:00,  0.0,133,  0.0,134.0
2018-12-16 08:18:00,  5.0,134,  4.0,135.0
2018-12-17 08:02:00,  0.0,130,  0.0,132.0
2018-12-18 08:00:00,  0.0,127,  0.0,127.0
2018-12-19 07:58:00,  0.0,125,  0.0,124.0
2018-12-20 08:16:00,  3.0,123,  3.0,124.0
2018-12-21 08:14:00,  0.0,120,  0.0,120.0
2018-12-22 08:15:00,  8.0,124, 11.0,124.0
2018-12-23 08:22:00,  5.0,124,  6.0,125.0
2018-12-24 08:58:00, 49.0,169, 73.0,169.0
2018-12-25 08:31:00,  9.0,168, 15.0,169.0
2018-12-26 08:04:00,  0.0,165,  0.0,163.0
2018-12-27 08:00:00,  0.0,163,  0.0,160.0
2018-12-28 08:00:00,  0.0,160,  0.0,158.0
2018-12-29 07:58:00,  0.0,158,  0.0,155.0
2018-12-30 08:09:00,  1.0,150,  1.0,150.0
2018-12-31 08:00:00, 13.0,160, 21.0,162.0
2019-01-01 07:58:00,  4.0,159,  7.0,160.0
2019-01-02 08:09:00, 10.0,165, 10.0,156.0
2019-01-03 08:00:00,  9.0,170, 11.0,175.0
2019-01-04 08:12:00,  0.0,162,  0.0,165.0
2019-01-05 09:34:00,  0.0,160,  0.0,162.0
2019-01-06 08:18:00, 34.0,191, 43.0,191.0
2019-01-07 08:11:00,  3.0,185,  3.0,189.0
2019-01-08 08:07:00,  3.0,182,  4.0,183.0
2019-01-09 08:22:00, 33.0,202, 36.0,205.0
2019-01-10 08:20:00, 10.0,205, 10.0,209.0
2019-01-11 08:40:00,  3.0,195,  3.0,203.0
2019-01-12 08:24:00, 10.0,207,  7.0,202.0
2019-01-13 08:32:00, 23.0,211, 30.0,216.0
2019-01-14 10:04:00, 43.0,249, 57.0,254.0
2019-01-15 09:30:00, 28.0,265, 30.0,269.0
2019-01-16 08:33:00,  0.0,254,  0.0,259.0
2019-01-17 08:17:00,  0.0,241,  0.0,247.0
2019-01-18 08:17:00,  6.0,244,  5.0,246.0
2019-01-19 08:06:00,  0.0,237,  0.0,240.0
2019-01-20 08:01:00,  0.0,234,  0.0,236.0
2019-01-21 08:16:00,  0.3,231,  0.0,235.0
2019-01-22 08:24:00,  2.0,230,  1.0,235.0
2019-01-23 08:10:00,  0.0,229,  0.0,232.0
2019-01-24 08:26:00,  0.3,227,  0.0,230.0
2019-01-25 08:28:00,  0.3,225,  0.0,228.0
2019-01-26 08:30:00,  2.0,222,  2.0,225.0
2019-01-27 08:20:00,  0.0,216,  0.0,215.0
2019-01-28 08:35:00,  8.0,220,  7.0,220.0
2019-01-29 08:27:00, 12.0,228,  9.0,230.0
2019-01-30 08:09:00,  0.3,220, NaN, NaN
2019-01-31 08:18:00,  1.0,218,  1.0,221.0
2019-02-01 08:00:00,  0.3,215, NaN,218.0
2019-02-02 08:34:00, 31.0,238, 41.0,242.0
2019-02-03 08:26:00, 12.0,237, 18.0,242.0
2019-02-04 08:29:00,  5.0,239,  1.0,244.0
2019-02-05 08:26:00,  0.0,234,  0.0,240.0
2019-02-06 08:28:00,  0.0,230,  0.0,236.0
2019-02-07 08:07:00,  0.0,228,  0.0,234.0
2019-02-08 08:12:00,  0.3,226,  0.0,229.0
2019-02-09 08:12:00,  0.3,224,  0.0,228.0
2019-02-10 08:05:00,  0.0,223,  0.0,228.0
2019-02-11 08:32:00, 22.0,248, 22.0,239.0
2019-02-12 08:18:00, 20.0,259, 13.0,268.0
2019-02-13 08:15:00,  0.0,248,  0.0,256.0
2019-02-14 08:48:00,  0.0,243,  0.0,249.0
2019-02-15 08:04:00,  0.0,239,  0.0,244.0
2019-02-16 07:57:00,  0.0,235,  0.0,240.0
2019-02-17 07:29:00,  0.0,233,  0.0,237.0
2019-02-18 07:58:00,  0.0,231,  0.0,235.0
2019-02-19 07:59:00,  0.0,229,  0.0,232.0
2019-02-20 08:10:00,  0.0,228,  0.0,232.0
2019-02-21 07:56:00,  0.0,228,  0.0,230.0
2019-02-22 07:57:00,  0.3,229,  1.0,228.0
2019-02-23 06:45:00,  0.0,228,  0.0,227.0
2019-02-24 08:01:00,  0.0,225,  0.0,227.0
2019-02-25 08:07:00,  0.0,223,  0.0,226.0
2019-02-26 08:11:00,  0.0,220,  0.0,222.0
2019-02-27 08:17:00,  0.0,219,  0.0,221.0
2019-02-28 08:02:00,  0.0,216,  0.0,218.0
2019-03-01 08:14:00,  0.0,214,  0.0,217.0
2019-03-02 08:33:00, 18.0,227, 27.0,231.0
2019-03-03 08:09:00,  0.0,225,  0.0,228.0
2019-03-04 08:08:00,  0.0,221,  0.0,227.0
2019-03-05 08:13:00,  7.0,229,  8.0,235.0
2019-03-06 08:10:00,  0.0,226,  0.0,229.0
2019-03-07 08:10:00,  0.0,224,  0.0,229.0
2019-03-08 08:40:00,  7.0,235,  9.0,239.0
2019-03-09 08:06:00,  2.0,235,  2.0,239.0
2019-03-10 08:21:00,  7.0,237,  9.0,240.0
2019-03-11 08:10:00,  9.0,242, 15.0,249.0
2019-03-12 08:21:00, 26.0,272, 19.0,280.0
2019-03-13 08:12:00,  2.0,260,  4.0,268.0
2019-03-14 08:34:00, 17.0,265, 11.0,277.0
2019-03-15 08:36:00, 49.0,308, 53.0, NaN
2019-03-16 08:26:00, 18.0,307, 14.0, NaN
2019-03-17 08:15:00,  0.0,303,  0.0, NaN
2019-03-18 08:24:00,  9.0,301, 12.0, NaN
2019-03-19 08:27:00,  3.0,300,  1.0, NaN
2019-03-20 08:17:00,  0.3,294,  0.0,295.0
2019-03-21 08:05:00,  0.0,292,  0.0,295.0
2019-03-22 08:01:00,  0.0,287,  0.0,290.0
2019-03-23 08:09:00,  0.0,281,  0.0,290.0
2019-03-24 08:19:00,  0.0,276,  0.0,284.0
2019-03-25 08:11:00,  0.3,274,  0.0,280.0
2019-03-26 08:10:00,  9.0,273,  8.0,281.0
2019-03-27 08:05:00,  0.3,272, NaN,278.0
2019-03-28 08:35:00,  0.0,270,  0.0,276.0
2019-03-29 08:18:00,  0.0,269,  0.0,275.0
2019-03-30 08:06:00,  0.0,266,  0.0,273.0
2019-03-31 08:03:00,  0.0,264,  0.0,271.0
2019-04-01 08:37:00,  0.0,263,  0.0,270.0
2019-04-02 08:23:00,  0.0,260,  0.0,268.0
2019-04-03 08:28:00,  4.0,260,  3.0,267.0
2019-04-04 08:07:00,  1.0,261,  3.0,267.0
2019-04-05 08:23:00, 34.0,291, 49.0,300.0
2019-04-06 07:56:00,  0.0,281,  0.0,290.0
2019-04-07 07:59:00,  0.0,278,  0.0,278.0
2019-04-08 08:12:00,  3.0,278,  4.0,286.0
2019-04-09 08:01:00,  1.0,275,  1.0,284.0
2019-04-10 08:10:00,  2.0,275,  2.0,284.0
2019-04-11 08:30:00,  0.3,273, NaN,282.0
2019-04-12 08:29:00,  0.3,273,  1.0,282.0
2019-04-13 08:11:00,  0.3,273,  0.0,282.0
2019-04-14 08:08:00,  6.0,271,  4.0,283.0
2019-04-15 08:20:00,  4.0,272,  5.0,283.0
2019-04-16 08:15:00,  0.0,270,  0.0,281.0
2019-04-17 08:16:00,  0.3,269,  0.0,279.0
2019-04-18 08:16:00,  0.0,267,  0.0,277.0
2019-04-19 08:13:00,  0.0,265,  0.0,274.0
2019-04-20 08:30:00,  0.0,260,  0.0,272.0
2019-04-21 07:55:00,  0.0,256,  0.0,267.0
2019-04-22 07:46:00,  0.0,253,  0.0,262.0
2019-04-23 08:28:00,  0.0,250,  0.0,258.0
2019-04-24 08:27:00,  0.0,249,  0.0,255.0
2019-04-25 08:20:00,  2.0,246,  4.0,254.0
2019-04-26 08:16:00,  0.3,244,  0.0,249.0
2019-04-27 08:28:00, 21.0,264, 22.0,272.0
2019-04-28 08:17:00,  0.0,264,  0.0,263.0
2019-04-29 08:25:00,  6.0,265,  8.0,268.0
2019-04-30 08:12:00,  1.0,264,  3.0,271.0
2019-05-01 08:13:00,  0.0,261,  0.0,268.0
2019-05-02 08:21:00,  0.0,258,  0.0,263.0
2019-05-03 08:28:00, 17.0,270, 19.0,275.0
2019-05-04 08:25:00,  1.0,261,  0.0,265.0
2019-05-05 09:11:00,  8.0,270,  8.0,273.0
2019-05-06 08:23:00,  0.0,258,  0.0,272.0
2019-05-07 08:27:00,  2.0,260,  1.0,274.0
2019-05-08 08:12:00,  0.0,257,  0.0,268.0
2019-05-09 08:08:00,  5.0,261,  5.0,272.0
2019-05-10 08:14:00,  0.3,257,  1.0,269.0
2019-05-11 06:22:00,  0.0,254,  0.0,264.0
2019-05-12 08:51:00, 26.0,280, 42.0,283.0
2019-05-13 07:45:00,  3.0,280,  5.0,292.0
2019-05-14 07:40:00,  0.3,278,  0.0,288.0
2019-05-15 08:17:00,  3.0,279,  2.0,288.0
2019-05-16 08:21:00,  0.0,277,  0.0,287.0
2019-05-17 08:09:00,  0.0,272,  0.0,281.0
2019-05-18 08:29:00,  0.0,269,  0.0,279.0
2019-05-19 08:05:00,  0.3,266,  0.0,270.0
2019-05-20 08:13:00,  5.0,268,  7.0, NaN
2019-05-21 08:33:00, 29.0,291, 41.0, NaN
2019-05-22 08:44:00,  6.0,296, 11.0, NaN
2019-05-23 08:38:00,  0.0,285,  0.0, NaN
2019-05-24 08:15:00,  0.0,279,  0.0,286.0
2019-05-25 08:23:00,  0.0,270,  0.0,282.0
2019-05-26 08:19:00,  2.0,270,  4.0,282.0
2019-05-27 08:18:00,  0.0,265,  0.0,276.0
2019-05-28 08:28:00,  7.0,271, 14.0,282.0
2019-05-29 08:15:00, 12.0,286, 23.0,299.0
2019-05-30 08:35:00,  3.0,278,  9.0,296.0
2019-05-31 08:41:00,  0.0,276,  0.0,290.0
2019-06-01 08:59:00,  0.0,272,  0.0,282.0
2019-06-02 09:08:00,  0.0,270,  0.0,275.0
2019-06-03 08:02:00,  0.0,265,  0.0, NaN
2019-06-04 08:03:00,  0.0,258,  0.0,263.0
2019-06-05 08:10:00,  0.0,252,  0.0,257.0
2019-06-06 08:21:00,  0.0,240,  0.0,246.0
2019-06-07 09:31:00,  0.0,235,  0.0,240.0
2019-06-08 08:01:00,  0.0,226,  0.0,232.0
2019-06-09 07:58:00,  0.0,220,  0.0,224.0
2019-06-10 08:03:00,  0.0,214,  0.0,218.0
2019-06-11 08:06:00,  0.3,207, NaN,211.0
2019-06-12 08:21:00,  0.0,198,  0.0,200.0
2019-06-13 08:15:00,  0.3,192,  0.0,196.0
2019-06-14 08:16:00,  0.0,185,  0.0,191.0
2019-06-15 07:55:00,  0.0,177,  0.0,186.0
2019-06-16 08:24:00,  0.0,167,  0.0,173.0
2019-06-17 08:27:00,  0.0,162,  0.0,167.0
2019-06-18 08:20:00,  0.0,160,  0.0,165.0
2019-06-19 08:33:00,  0.0,157,  0.0,160.0
2019-06-20 07:58:00,  0.0,145,  0.0,147.0
2019-06-21 06:52:00,  0.0,143,  0.0,145.0
2019-06-22 07:03:00,  0.0,138,  0.0,140.0
2019-06-23 07:01:00,  0.0,135,  0.0,137.0
2019-06-24 07:08:00,  0.0,129,  0.0,132.0
2019-06-25 07:02:00,  0.0,125,  0.0,127.0
2019-06-26 07:01:00,  0.0,118,  0.0,119.0
2019-06-27 07:41:00,  0.0,114,  0.0,110.0
2019-06-28 08:03:00,  0.0,96,  0.0, 93.0
2019-06-29 08:07:00,  0.0,85,  0.0, 77.0
2019-06-30 08:13:00,  0.0,79,  0.0, 70.0
2019-07-01 08:09:00,  0.0,68,  0.0, 59.0
2019-07-02 08:08:00,  0.0,59,  0.0, 49.0
2019-07-03 07:57:00,  0.0,42,  0.0, 43.0
2019-07-04 08:07:00,  0.0,40,  0.0, 37.0
2019-07-05 08:03:00,  0.0,35,  0.0, 30.0
2019-07-06 07:44:00,  0.0,30,  0.0, 20.0
2019-07-07 08:01:00,  0.0,20,  0.0, 10.0
2019-07-08 08:04:00,  0.0,0,  0.0,  0.0
2019-10-01 08:00:00,  0.0,0,  0.0, NaN
2019-10-02 08:07:00,  4.0,4, 18.0,  4.0
2019-10-03 08:08:00,  2.0,5,  3.0,  7.0
2019-10-04 08:06:00,  0.0,5,  0.0,  7.0
2019-10-05 08:09:00,  7.0,9, 10.0, 10.0
2019-10-06 08:07:00,  8.0,15, 18.0, 18.0
2019-10-07 08:06:00,  9.0,18, 14.0, 20.0
2019-10-08 08:05:00,  0.0,15,  0.0, 19.0
2019-10-09 08:03:00,  0.0,9,  0.0, 12.0
2019-10-10 08:19:00,  6.0,14, 10.0, 16.0
2019-10-11 08:03:00,  0.0,12,  0.0, 14.0
2019-10-12 08:08:00,  0.0,9,  0.0, 12.0
2019-10-13 08:04:00,  0.0,7,  0.0, 10.0
2019-10-14 08:07:00,  0.0,5,  0.0,  7.0
2019-10-15 08:03:00,  0.0,2,  0.0,  2.0
2019-10-16 08:10:00,  5.0,9,  4.0, 10.0
2019-10-17 08:17:00,  0.0,4,  0.0,  7.0
2019-10-18 08:18:00,  0.0,2,  0.0,  3.0
2019-10-19 08:10:00,  0.0,1,  0.0,  1.0
2019-10-20 08:19:00,  0.0,1,  0.0,  0.0
2019-10-21 08:29:00,  0.0,0,  0.0,  0.0
2019-10-22 08:00:00,  0.0,0,  0.0, NaN
2019-10-23 08:00:00,  0.0,0,  0.0, NaN
2019-10-24 08:00:00,  0.0,0,  0.0, NaN
2019-10-25 08:00:00,  0.0,0,  0.0, NaN
2019-10-26 08:00:00,  0.0,0,  0.0, NaN
2019-10-27 08:00:00,  0.0,0,  0.0, NaN
2019-10-28 08:00:00,  0.0,0,  0.0, NaN
2019-10-29 08:00:00,  0.3,0,  1.0, NaN
2019-10-30 07:30:00,  0.0,0,  0.0, NaN
2019-10-31 08:00:00,  2.0,1,  8.0, NaN
2019-11-01 08:00:00,  0.0,0,  0.0, NaN
2019-11-02 08:15:00,  0.3,0,  1.0, NaN
2019-11-03 08:25:00,  3.0,3,  3.0, NaN
2019-11-04 08:10:00, 14.0,15, 14.0, NaN
2019-11-05 08:20:00, 24.0,28, 29.0, 32.0
2019-11-06 08:05:00,  8.0,33,  7.0, 38.0
2019-11-07 08:00:00,  0.3,28,  0.0, 30.0
2019-11-08 08:16:00,  9.0,30, 12.0, 34.0
2019-11-09 08:10:00,  2.0,29,  3.0, 32.0
2019-11-10 08:10:00,  0.1,27,  0.0, 30.0
2019-11-11 08:11:00,  0.0,26,  0.0, 29.0
2019-11-12 08:15:00, 14.0,41,  9.0, 39.0
2019-11-13 08:03:00,  2.0,39,  1.0, 38.0
2019-11-14 08:25:00,  0.0,35,  0.0, 35.0
2019-11-15 08:20:00, 17.0,45, 31.0, 50.0
2019-11-16 08:15:00, 24.0,65, 24.0, 63.0
2019-11-17 08:15:00, 11.0,69, 11.0, 67.0
2019-11-18 08:20:00, 22.0,80, 17.0, 81.0
2019-11-19 08:15:00,  0.0,72,  0.0, 73.0
2019-11-20 08:15:00,  0.0,65,  0.0, 67.0
2019-11-21 08:00:00,  0.0,60,  0.0, 63.0
2019-11-22 08:00:00,  0.0,58,  0.0, 60.0
2019-11-23 08:00:00,  0.0,55,  0.0, 57.0
2019-11-24 07:52:00,  0.0,54,  0.0, 57.0
2019-11-25 07:59:00,  0.0,50,  0.0, 55.0
2019-11-26 08:00:00,  0.0,49,  0.0, 53.0
2019-11-27 08:00:00,  0.0,47,  0.0, 53.0
2019-11-28 08:00:00,  3.0,50,  4.0, 55.0
2019-11-29 07:58:00, 12.0,60,  9.0, 63.0
2019-11-30 08:00:00, 13.0,73, 14.0, 74.0
2019-12-01 08:00:00,  2.0,69,  3.0, 70.0
2019-12-02 08:00:00, 10.0,74,  7.0, 75.0
2019-12-03 08:00:00,  1.0,70,  1.0, 73.0
2019-12-04 07:55:00,  0.0,67,  0.0, 70.0
2019-12-05 08:10:00,  0.0,65,  0.0, 68.0
2019-12-06 08:00:00,  0.0,63,  0.0, 66.0
2019-12-07 08:00:00,  0.3,63, NaN, 66.0
2019-12-08 08:00:00,  0.0,62,  0.0, 65.0
2019-12-09 08:00:00,  2.0,63,  1.0, 64.0
2019-12-10 07:30:00, 20.0,85, 23.0, 93.0
2019-12-11 08:00:00,  0.0,79,  0.0, 88.0
2019-12-12 07:58:00,  7.0,83,  6.0, 98.0
2019-12-13 08:00:00,  5.0,83,  9.0, 88.0
2019-12-14 08:00:00, 15.0,95, 14.0, 99.0
2019-12-15 08:00:00,  1.0,86,  2.0, 93.0
2019-12-16 08:00:00,  0.0,83,  0.0, 87.0
2019-12-17 08:10:00,  0.0,81,  0.0, 73.0
2019-12-18 08:00:00,  0.0,81,  0.0, 73.0
2019-12-19 08:00:00,  0.0,76,  0.0, 72.0
2019-12-20 08:00:00,  0.0,75,  0.0, 71.0
2019-12-21 07:50:00, 11.0,89, 10.0, 82.0
2019-12-22 08:00:00, 10.0,93,  9.0, 89.0
2019-12-23 08:00:00, 15.0,110, 26.0,100.0
2019-12-24 08:00:00, 23.0,113, 38.0,121.0
2019-12-25 08:20:00, 27.0,136, 35.0,148.0
2019-12-26 08:00:00,  4.0,134,  6.0,138.0
2019-12-27 07:45:00,  2.0,134,  1.0,141.0
2019-12-28 07:45:00,  2.0,133,  2.0,144.0
2019-12-29 07:45:00,  0.0,129,  0.0,138.0
2019-12-30 07:45:00,  0.0,125,  0.0,133.0
2019-12-31 07:40:00,  0.0,122,  0.0,133.0
2020-01-01 07:40:00,  0.0,120,  0.0,129.0
2020-01-02 07:30:00,  0.0,119,  0.0,127.0
2020-01-03 07:30:00,  0.0,116,  0.0,124.0
2020-01-04 07:30:00,  3.0,116,  6.0,123.0
2020-01-05 07:30:00,  1.0,119,  2.0,126.0
2020-01-06 08:00:00,  0.0,118,  0.0,124.0
2020-01-07 08:00:00,  0.0,118,  0.0,124.0
2020-01-08 07:30:00,  0.0,115,  0.0,121.0
2020-01-09 07:30:00,  0.0,114,  0.0,119.0
2020-01-10 08:00:00,  0.0,113,  0.0,119.0
2020-01-11 07:50:00,  0.0,113,  0.0,119.0
2020-01-12 07:55:00,  0.0,112,  0.0,118.0
2020-01-13 07:45:00,  0.0,111,  0.0,118.0
2020-01-14 07:50:00,  0.0,110,  0.0,116.0
2020-01-15 08:00:00,  0.0,109,  0.0,116.0
2020-01-16 08:00:00,  0.0,108,  0.0,115.0
2020-01-17 08:00:00,  0.0,108,  0.0,115.0
2020-01-18 08:00:00,  8.0,117,  8.0,118.0
2020-01-19 08:00:00,  2.0,120,  2.0,120.0
2020-01-20 08:00:00,  2.0,120,  1.0,120.0
2020-01-21 08:00:00,  0.0,117,  0.0,118.0
2020-01-22 08:00:00,  0.0,116,  0.0,117.0
2020-01-23 08:00:00,  0.0,116,  0.0,120.0
2020-01-24 08:00:00,  0.0,115,  0.0,120.0
2020-01-25 08:00:00,  0.0,115,  0.0,120.0
2020-01-26 08:00:00,  1.0,116,  1.0,120.0
2020-01-27 08:00:00,  1.0,118,  1.0,121.0
2020-01-28 08:00:00,  3.0,116,  4.0,118.0
2020-01-29 08:15:00, 32.0,160, 30.0,162.0
2020-01-30 08:00:00, 15.0,165, 12.0,169.0
2020-01-31 08:00:00,  6.0,160,  8.0,165.0
2020-02-01 07:50:00,  0.3,154, NaN,158.0
2020-02-02 07:50:00,  1.0,153,  1.0,155.0
2020-02-03 07:55:00, 21.0,165, 27.0,170.0
2020-02-04 08:20:00,  4.0,171,  8.0,179.0
2020-02-05 08:30:00, 24.0,183, 34.0,200.0
2020-02-06 07:30:00,  1.0,182,  1.0,193.0
2020-02-07 07:30:00,  0.0,175,  0.0,187.0
2020-02-08 07:30:00,  0.0,172,  0.0,183.0
2020-02-09 07:55:00,  0.0,169,  0.0,180.0
2020-02-10 07:55:00,  0.0,164,  0.0,176.0
2020-02-11 08:10:00, 12.0,178, 19.0,179.0
2020-02-12 08:00:00, 26.0,194, 19.0,204.0
2020-02-13 08:00:00, 10.0,189,  7.0,199.0
2020-02-14 07:55:00, 10.0,193, 12.0,208.0
2020-02-15 07:55:00,  3.0,187,  4.0, NaN
2020-02-16 07:30:00,  0.0,182,  0.0,192.0
2020-02-17 07:50:00,  0.0,177,  0.0,187.0
2020-02-18 07:55:00,  2.0,177,  3.0,187.0
2020-02-19 07:30:00,  0.0,175,  0.0,186.0
2020-02-20 08:10:00, 10.0,188,  8.0,191.0
2020-02-21 07:50:00,  0.0,184,  0.0,188.0
2020-02-22 07:30:00,  0.0,180,  0.0,186.0
2020-02-23 07:50:00,  0.0,178,  0.0,184.0
2020-02-24 07:50:00,  0.0,175,  0.0,183.0
2020-02-25 07:05:00,  0.0,174,  0.0,180.0
2020-02-26 08:00:00,  7.0,179,  6.0,184.0
2020-02-27 08:10:00, 17.0,198, 15.0,200.0
2020-02-28 08:15:00, 31.0,220, 31.0,219.0
2020-02-29 07:30:00,  0.0,214,  0.0,216.0
2020-03-01 08:15:00,  3.0,208,  2.0,208.0
2020-03-02 08:10:00,  5.0,207,  6.0,208.0
2020-03-03 08:00:00, 21.0,229, 25.0,236.0
2020-03-04 08:05:00,  9.0,232,  4.0,236.0
2020-03-05 07:30:00,  1.0,224,  1.0,228.0
2020-03-06 07:30:00, 16.0,225, 20.0,226.0
2020-03-07 07:30:00,  5.0,230,  2.0,236.0
2020-03-08 07:30:00,  6.0,230,  5.0,240.0
2020-03-09 07:30:00,  1.0,224,  2.0,233.0
2020-03-10 07:30:00,  3.0,222,  3.0,230.0
2020-03-11 08:20:00, 25.0,245, 32.0,252.0
2020-03-12 07:30:00,  0.0,232,  0.0,239.0
2020-03-13 07:30:00,  1.0,228,  1.0,235.0
2020-03-14 07:50:00,  1.0,225,  1.0,235.0
2020-03-15 08:30:00,  1.0,225,  1.0,235.0
2020-03-16 08:10:00,  0.0,222,  0.0,232.0
2020-03-17 08:10:00,  0.0,220,  0.0,228.0
2020-03-18 08:00:00,  0.0,217,  0.0,227.0
2020-03-19 08:00:00,  0.0,214,  0.0,224.0
2020-03-20 07:50:00,  0.0,212,  0.0,221.0
2020-03-21 07:50:00,  7.0,217,  6.0,226.0
2020-03-22 07:50:00,  3.0,215,  2.0,225.0
2020-03-23 08:00:00,  0.0,210,  0.0,220.0
2020-03-24 08:00:00,  0.0,209,  0.0,219.0
2020-03-25 08:00:00,  0.0,208,  0.0,218.0
2020-03-26 07:30:00,  1.0,209,  1.0,219.0
2020-03-27 07:30:00,  0.0,209,  0.0,218.0
2020-03-28 07:30:00,  0.0,208,  0.0,217.0
2020-03-29 07:00:00,  0.0,207,  0.0,216.0
2020-03-30 07:30:00,  4.0,210,  4.0,218.0
2020-03-31 07:45:00,  4.0,214,  3.0,223.0
2020-04-01 07:30:00,  0.0,213,  0.0,221.0
2020-04-02 08:15:00,  0.0,210,  0.0,218.0
2020-04-03 08:20:00,  0.0,209,  0.0,217.0
2020-04-04 08:40:00,  0.0,207,  0.0,215.0
2020-04-05 08:30:00,  0.0,206,  0.0,213.0
2020-04-06 08:00:00,  0.0,204,  0.0, NaN
2020-04-07 08:25:00,  0.0,203,  0.0,212.0
2020-04-08 08:20:00,  0.0,201,  0.0,209.0
2020-04-09 07:57:00,  0.0,197,  0.0,204.0
2020-04-10 08:10:00,  0.0,193,  0.0,193.0
2020-04-11 08:10:00,  0.0,189,  0.0,196.0
2020-04-12 08:15:00,  0.0,184,  0.0,192.0
2020-04-13 08:20:00,  0.0,180,  0.0,190.0
2020-04-14 08:20:00,  4.0,181,  6.0,190.0
2020-04-15 08:05:00,  0.0,178,  0.0,188.0
2020-04-16 08:10:00,  0.0,176,  0.0,186.0
2020-04-17 08:00:00,  0.0,175,  0.0,184.0
2020-04-18 08:10:00,  0.0,172,  0.0,180.0
2020-04-19 08:00:00,  0.0,165,  0.0,175.0
2020-04-20 08:10:00,  0.3,163,  1.0,172.0
2020-04-21 08:15:00,  0.3,160, NaN,170.0
2020-04-22 08:05:00,  0.0,159,  0.0,168.0
2020-04-23 08:10:00,  0.0,155,  0.0,166.0
2020-04-24 08:15:00,  0.3,153, NaN,162.0
2020-04-25 08:10:00,  0.0,150,  0.0,159.0
2020-04-26 07:30:00,  0.3,149, NaN,158.0
2020-04-27 08:05:00,  0.3,148,  1.0,156.0
2020-04-28 07:45:00,  0.0,145,  0.0,152.0
2020-04-29 08:00:00, 11.0,155, 18.0,166.0
2020-04-30 07:40:00,  0.0,155,  0.0,164.0
2020-05-01 08:30:00, 11.0,164, 13.0,174.0
2020-05-02 07:45:00, 11.0,175, 12.0,182.0
2020-05-03 07:40:00,  7.0,175,  8.0,183.0
2020-05-04 07:30:00,  1.0,168,  1.0,177.0
2020-05-05 07:35:00,  0.0,162,  0.0,171.0
2020-05-06 07:40:00, 11.0,174, 23.0,184.0
2020-05-07 07:15:00,  0.0,168,  0.0,177.0
2020-05-08 07:30:00,  0.0,163,  0.0,173.0
2020-05-09 07:30:00,  0.0,158,  0.0,168.0
2020-05-10 08:15:00,  0.0,153,  0.0,162.0
2020-05-11 07:10:00,  0.0,150,  0.0,157.0
2020-05-12 07:30:00,  3.0,151,  4.0,158.0
2020-05-13 07:30:00,  0.0,143,  0.0,150.0
2020-05-14 07:30:00,  0.0,143,  0.0,150.0
2020-05-15 07:00:00,  0.3,139,  1.0,148.0
2020-05-16 07:00:00,  0.3,139,  1.0,147.0
2020-05-17 07:40:00,  0.0,138,  0.0,146.0
2020-05-18 07:00:00,  0.0,134,  0.0,142.0
2020-05-19 07:00:00,  0.0,128,  0.0,136.0
2020-05-20 07:00:00,  0.0,122,  0.0,129.0
2020-05-21 07:20:00,  0.0,115,  0.0,120.0
2020-05-22 07:20:00,  0.0,110,  0.0,115.0
2020-05-23 07:30:00,  0.0,105,  0.0,110.0
2020-05-24 07:30:00,  4.0,104,  9.0,107.0
2020-05-25 07:30:00,  0.0,100,  0.0,104.0
2020-05-26 07:30:00,  0.0,99,  0.0,103.0
2020-05-27 07:20:00,  0.0,95,  0.0, 97.0
2020-05-28 08:10:00,  0.0,90,  0.0, 93.0
2020-05-29 07:30:00,  1.0,90,  1.0, 93.0
2020-05-30 07:30:00,  0.0,87,  0.0, NaN
2020-05-31 08:10:00,  0.0,85,  0.0, 87.0
2020-06-01 08:00:00,  0.0,81,  0.0, 81.0
2020-06-02 07:05:00,  0.0,78,  0.0, 77.0
2020-06-03 07:55:00,  0.0,71,  0.0, 70.0
2020-06-04 07:45:00,  0.0,63,  0.0, 66.0
2020-06-05 08:04:00,  4.0,70,  5.0, 80.0
2020-06-06 07:55:00,  0.0,63,  0.0, 67.0
2020-06-07 07:55:00,  0.0,58,  0.0, 60.0
2020-06-08 09:00:00, 26.0,85, 36.0, 88.0
2020-06-09 08:10:00, 16.0,91, 15.0, 95.0
2020-06-10 08:00:00, 16.0,85, 25.0, 88.0
2020-06-11 08:00:00, 14.0,96, 22.0, 99.0
2020-06-12 08:10:00,  0.0,88,  0.0, 91.0
2020-06-13 07:30:00,  0.0,78,  0.0, 83.0
2020-06-14 07:30:00,  0.0,71,  0.0, 75.0
2020-06-15 08:00:00,  0.0,66,  0.0, 70.0
2020-06-16 08:30:00,  0.0,64,  0.0, 67.0
2020-06-17 08:00:00,  0.0,61,  0.0, 64.0
2020-06-18 07:50:00,  0.0,60,  0.0, 62.0
2020-06-19 07:40:00,  1.0,57,  2.0, 61.0
2020-06-20 07:30:00,  2.0,58,  7.0, 61.0
2020-06-21 07:30:00,  0.0,52,  0.0, 56.0
2020-06-22 07:15:00,  0.0,50,  0.0, 53.0
2020-06-23 07:15:00,  0.0,45,  0.0, 48.0
2020-06-24 07:15:00,  0.0,38,  0.0, 39.0
2020-06-25 08:10:00,  0.0,33,  0.0, 34.0
2020-06-26 08:10:00,  0.0,24,  0.0, 25.0
2020-06-27 08:10:00,  0.0,12,  0.0, 13.0
2020-06-28 08:10:00,  0.0,2,  0.0,  3.0
2020-06-29 08:05:00,  0.0,0,  0.0,  0.0
